Nagpur Sonegaon, India

7:15 PM IST on October 17, 2017 (GMT +0530)
Nagpur

Weather History for VANP - July, 2013

Change the Weather History Date:

Wednesday, July 17, 2013

  Actual Average Record
Temperature  
Mean Temperature 80 °F -  
Max Temperature 86 °F 88 °F - ()
Min Temperature 75 °F 74 °F - ()
Cooling Degree Days 16    
Growing Degree Days 30 (Base 50)    
Moisture  
Dew Point 77 °F    
Average Humidity 91    
Maximum Humidity 100    
Minimum Humidity 82    
Precipitation  
Precipitation 0.20 in 0.38 in - ()
Sea Level Pressure  
Sea Level Pressure 29.52 in    
Wind  
Wind Speed 4 mph ()    
Max Wind Speed 13 mph    
Max Gust Speed -    
Visibility 2.0 miles    
Events Rain    
T = Trace of Precipitation, MM = Missing Value Source: Averaged Metar Reports

Daily Weather History Graph

Daily Weather History Graph

Search for Another Location

Airport or City:

Trip Planner

Search our weather history database for the weather conditions in past years. The results will help you decide how hot, cold, wet, or windy it might be!

Date:

Astronomy

Jul. 17, 2013 Rise Set
Actual Time 5:41 AM IST 6:58 PM IST
Civil Twilight 5:17 AM IST 7:22 PM IST
Nautical Twilight 4:48 AM IST 7:51 PM IST
Astronomical Twilight 4:18 AM IST 8:21 PM IST
Moon 1:27 PM IST No Moon Set
Length of Visible Light 14h 05m
Length of Day
13h 16m
Waxing Gibbous, 62% of the Moon is Illuminated
Jul 17
Waxing Gibbous
Jul 22
Full
Jul 29
Last Quarter
Aug 7
New
Aug 14
First Quarter

Hourly Weather History & Observations

Time (IST) Temp. Heat Index Dew Point Humidity Pressure Visibility Wind Dir Wind Speed Gust Speed Precip Events Conditions
12:10 AM 77.0 °F - 75.2 °F 94% 29.56 in 2.5 mi West 4.6 mph - N/A   Haze
1:10 AM 77.0 °F - 75.2 °F 94% 29.53 in 2.5 mi WNW 4.6 mph - N/A   Haze
2:10 AM 77.0 °F - 75.2 °F 94% 29.53 in 2.5 mi WNW 3.5 mph - N/A   Haze
2:30 AM 77 °F - 76 °F 94% 29.48 in 1 mi NW 8.9 mph - - Rain Light Drizzle
3:10 AM 77.0 °F - 75.2 °F 94% 29.50 in 2.5 mi WNW 4.6 mph - N/A   Haze
5:10 AM 75.2 °F - 75.2 °F 100% 29.50 in 2.5 mi Calm Calm - N/A   Light Drizzle
5:30 AM 76 °F - 75 °F 97% 29.49 in 1 mi Calm Calm - -   Haze
5:40 AM 77.0 °F - 75.2 °F 94% 29.53 in 2.5 mi Calm Calm - N/A   Haze
6:40 AM 75.2 °F - 75.2 °F 100% 29.53 in 1.9 mi NW 3.5 mph - N/A   Light Drizzle
7:40 AM 75.2 °F - 75.2 °F 100% 29.56 in 1.6 mi West 4.6 mph - N/A   Haze
8:10 AM 77.0 °F - 75.2 °F 94% 29.56 in 1.9 mi WNW 5.8 mph - N/A   Haze
8:30 AM 81 °F - 76 °F 82% 29.52 in 2 mi WNW 3.5 mph - -   Haze
10:10 AM 82.4 °F 92.4 °F 78.8 °F 89% 29.56 in 3.1 mi WNW 8.1 mph - N/A   Haze
10:40 AM 82.4 °F 92.4 °F 78.8 °F 89% 29.56 in 3.1 mi WNW 5.8 mph - N/A   Haze
11:30 AM 83 °F - 78 °F 82% 29.52 in 2 mi East 4.6 mph - - Rain Light Drizzle
11:40 AM 84.2 °F 96.1 °F 78.8 °F 84% 29.56 in 3.1 mi WNW 5.8 mph - N/A   Light Drizzle
12:40 PM 82.4 °F 92.4 °F 78.8 °F 89% 29.56 in 1.2 mi WNW 4.6 mph - N/A Rain Light Rain
1:40 PM 84.2 °F 100.6 °F 82.4 °F 94% 29.50 in 1.2 mi West 5.8 mph - N/A Rain Light Rain
2:10 PM 84.2 °F 100.6 °F 82.4 °F 94% 29.50 in 1.9 mi West 6.9 mph - N/A   Haze
2:30 PM 84 °F - 80 °F 86% 29.46 in 2 mi WSW 13.4 mph - -   Haze
3:10 PM 84.2 °F 98.3 °F 80.6 °F 89% 29.50 in 2.5 mi WSW 8.1 mph - N/A   Haze
3:40 PM 84.2 °F 98.3 °F 80.6 °F 89% 29.47 in 2.5 mi WSW 4.6 mph - N/A   Haze
4:40 PM 84.2 °F 100.6 °F 82.4 °F 94% 29.47 in 1.9 mi NW 9.2 mph - N/A   Haze
5:30 PM 82 °F - 77 °F 82% 29.45 in 1 mi West 6.7 mph - -   Haze
6:10 PM 82.4 °F 90.9 °F 77.0 °F 84% 29.50 in 1.9 mi SW 3.5 mph - N/A   Haze
7:10 PM 80.6 °F 87.1 °F 77.0 °F 89% 29.50 in 1.9 mi SSW 3.5 mph - N/A   Haze
7:40 PM 80.6 °F 87.1 °F 77.0 °F 89% 29.53 in 1.9 mi SSW 5.8 mph - N/A   Haze
8:10 PM 80.6 °F 87.1 °F 77.0 °F 89% 29.53 in 1.9 mi SW 4.6 mph - N/A   Haze
8:30 PM 79 °F - 77 °F 92% 29.50 in 1 mi SW 3.5 mph - -   Haze
8:40 PM 78.8 °F - 77.0 °F 94% 29.53 in 1.9 mi West 3.5 mph - N/A   Haze
9:10 PM 78.8 °F - 77.0 °F 94% 29.56 in 1.9 mi West 5.8 mph - N/A   Haze
10:10 PM 78.8 °F - 77.0 °F 94% 29.56 in 1.9 mi WSW 2.3 mph - N/A   Haze
11:30 PM 79 °F - 77 °F 92% 29.52 in 1 mi West 6.9 mph - -   Haze